Wetterdaten: Sonntag, 16.10.2005
Datum Zeit Temp. A Sch. Temp. A Son. Feuchte A. Luftdruck Regen Wind Richtung Richtung Sonnenschein Helligkeit Taupunkt Windchill
16.10.2005 00:00 9,5 C 8,2 C 75 % 1028 hPa 0,0 l/m 1,3 m/s (1 Bft) O22.5 100 0,00 min 0 lux 5,3 C 9,5 C
16.10.2005 00:05 9,6 C 8,2 C 75 % 1028 hPa 0,0 l/m 0,8 m/s (0 Bft) O 90 0,00 min 0 lux 5,4 C 9,6 C
16.10.2005 00:10 9,3 C 8,2 C 76 % 1028 hPa 0,0 l/m 0,6 m/s (0 Bft) O 100 0,00 min 0 lux 5,3 C 9,3 C
16.10.2005 00:15 9,9 C 8,2 C 77 % 1028 hPa 0,0 l/m 1,2 m/s (1 Bft) O22.5 85 0,00 min 0 lux 6,1 C 9,9 C
16.10.2005 00:20 10,0 C 8,1 C 74 % 1028 hPa 0,0 l/m 2,3 m/s (1 Bft) O-NO22.5 75 0,00 min 0 lux 5,6 C 8,7 C
16.10.2005 00:25 9,8 C 8,2 C 74 % 1028 hPa 0,0 l/m 1,6 m/s (1 Bft) O22.5 85 0,00 min 0 lux 5,4 C 9,8 C
16.10.2005 00:30 9,5 C 8,1 C 75 % 1028 hPa 0,0 l/m 1,2 m/s (1 Bft) O22.5 80 0,00 min 0 lux 5,3 C 9,5 C
16.10.2005 00:35 9,3 C 8,0 C 75 % 1028 hPa 0,0 l/m 0,1 m/s (0 Bft) O-NO22.5 75 0,00 min 0 lux 5,1 C 9,3 C
16.10.2005 00:40 8,9 C 8,0 C 77 % 1028 hPa 0,0 l/m 0,0 m/s (0 Bft) O22.5 100 0,00 min 0 lux 5,1 C 8,9 C
16.10.2005 00:45 8,5 C 7,9 C 79 % 1028 hPa 0,0 l/m 0,0 m/s (0 Bft) O-SO 105 0,00 min 0 lux 5,1 C 8,5 C
16.10.2005 00:50 8,5 C 7,8 C 79 % 1028 hPa 0,0 l/m 0,0 m/s (0 Bft) O-SO22.5 115 0,00 min 0 lux 5,1 C 8,5 C
16.10.2005 00:55 8,6 C 7,8 C 81 % 1028 hPa 0,0 l/m 1,0 m/s (0 Bft) O45 100 0,00 min 0 lux 5,5 C 8,6 C
16.10.2005 01:00 8,7 C 7,7 C 82 % 1028 hPa 0,0 l/m 0,3 m/s (0 Bft) O-NO45 75 0,00 min 0 lux 5,8 C 8,7 C
16.10.2005 01:05 8,5 C 7,7 C 82 % 1028 hPa 0,0 l/m 0,9 m/s (0 Bft) O-SO22.5 115 0,00 min 0 lux 5,6 C 8,5 C
16.10.2005 01:10 8,4 C 7,7 C 82 % 1028 hPa 0,0 l/m 0,0 m/s (0 Bft) O22.5 95 0,00 min 0 lux 5,5 C 8,4 C
16.10.2005 01:15 8,9 C 7,6 C 83 % 1028 hPa 0,0 l/m 2,5 m/s (1 Bft) O22.5 95 0,00 min 0 lux 6,2 C 7,1 C
16.10.2005 01:20 9,2 C 7,6 C 81 % 1028 hPa 0,0 l/m 2,3 m/s (1 Bft) O22.5 95 0,00 min 0 lux 6,1 C 7,8 C
16.10.2005 01:25 9,2 C 7,7 C 81 % 1028 hPa 0,0 l/m 2,6 m/s (1 Bft) O-SO22.5 105 0,00 min 0 lux 6,1 C 7,1 C
16.10.2005 01:30 9,3 C 7,7 C 80 % 1028 hPa 0,0 l/m 3,0 m/s (1 Bft) O45 95 0,00 min 0 lux 6,0 C 6,3 C
16.10.2005 01:35 9,0 C 7,8 C 80 % 1028 hPa 0,0 l/m 3,0 m/s (1 Bft) O45 95 0,00 min 0 lux 5,7 C 6,0 C
16.10.2005 01:40 8,7 C 7,7 C 81 % 1028 hPa 0,0 l/m 0,1 m/s (0 Bft) O-SO22.5 110 0,00 min 0 lux 5,6 C 8,7 C
16.10.2005 01:45 8,4 C 7,7 C 82 % 1028 hPa 0,0 l/m 1,0 m/s (0 Bft) O-SO45 120 0,00 min 0 lux 5,5 C 8,4 C
16.10.2005 01:50 8,3 C 7,6 C 83 % 1028 hPa 0,0 l/m 0,2 m/s (0 Bft) O22.5 90 0,00 min 0 lux 5,6 C 8,3 C
16.10.2005 01:55 8,2 C 7,5 C 84 % 1028 hPa 0,0 l/m 0,3 m/s (0 Bft) O-SO67.5 110 0,00 min 0 lux 5,7 C 8,2 C
16.10.2005 02:00 8,5 C 7,5 C 85 % 1028 hPa 0,0 l/m 1,2 m/s (1 Bft) O45 95 0,00 min 0 lux 6,1 C 8,5 C
16.10.2005 02:05 8,1 C 7,5 C 84 % 1028 hPa 0,0 l/m 1,2 m/s (1 Bft) SO22.5 125 0,00 min 0 lux 5,6 C 8,1 C
16.10.2005 02:10 7,8 C 7,4 C 86 % 1028 hPa 0,0 l/m 0,1 m/s (0 Bft) NO22.5 50 0,00 min 0 lux 5,6 C 7,8 C
16.10.2005 02:15 7,8 C 7,4 C 86 % 1028 hPa 0,0 l/m 0,0 m/s (0 Bft) NO22.5 50 0,00 min 0 lux 5,6 C 7,8 C
16.10.2005 02:20 7,9 C 7,3 C 87 % 1028 hPa 0,0 l/m 0,0 m/s (0 Bft) NO 55 0,00 min 0 lux 5,9 C 7,9 C
16.10.2005 02:25 7,9 C 7,2 C 88 % 1028 hPa 0,0 l/m 0,1 m/s (0 Bft) O22.5 90 0,00 min 0 lux 6,0 C 7,9 C
16.10.2005 02:30 7,9 C 7,2 C 88 % 1028 hPa 0,0 l/m 1,2 m/s (1 Bft) O-SO22.5 105 0,00 min 0 lux 6,0 C 7,9 C
16.10.2005 02:35 7,8 C 7,2 C 88 % 1028 hPa 0,0 l/m 1,4 m/s (1 Bft) O22.5 80 0,00 min 0 lux 5,9 C 7,8 C
16.10.2005 02:40 7,6 C 7,2 C 88 % 1028 hPa 0,0 l/m 1,4 m/s (1 Bft) O-SO45 105 0,00 min 0 lux 5,7 C 7,6 C
16.10.2005 02:45 7,7 C 7,2 C 89 % 1027 hPa 0,0 l/m 2,4 m/s (1 Bft) SO45 125 0,00 min 0 lux 6,0 C 5,9 C
16.10.2005 02:50 8,1 C 7,2 C 88 % 1027 hPa 0,0 l/m 2,3 m/s (1 Bft) O22.5 100 0,00 min 0 lux 6,2 C 6,7 C
16.10.2005 02:55 8,1 C 7,2 C 88 % 1027 hPa 0,0 l/m 2,4 m/s (1 Bft) O22.5 95 0,00 min 0 lux 6,2 C 6,5 C
16.10.2005 03:00 8,0 C 7,2 C 87 % 1027 hPa 0,0 l/m 1,9 m/s (1 Bft) SO45 125 0,00 min 0 lux 6,0 C 7,7 C
16.10.2005 03:05 7,9 C 7,2 C 88 % 1027 hPa 0,0 l/m 1,5 m/s (1 Bft) O-SO22.5 115 0,00 min 0 lux 6,0 C 7,9 C
16.10.2005 03:10 7,9 C 7,1 C 88 % 1028 hPa 0,0 l/m 0,9 m/s (0 Bft) O22.5 95 0,00 min 0 lux 6,0 C 7,9 C
16.10.2005 03:15 7,8 C 7,1 C 88 % 1028 hPa 0,0 l/m 1,1 m/s (1 Bft) O-SO22.5 105 0,00 min 0 lux 5,9 C 7,8 C
16.10.2005 03:20 7,9 C 7,1 C 88 % 1028 hPa 0,0 l/m 1,3 m/s (1 Bft) O67.5 90 0,00 min 0 lux 6,0 C 7,9 C
16.10.2005 03:25 7,5 C 7,0 C 88 % 1028 hPa 0,0 l/m 0,2 m/s (0 Bft) O-SO22.5 120 0,00 min 0 lux 5,6 C 7,5 C
16.10.2005 03:30 7,5 C 7,0 C 89 % 1028 hPa 0,0 l/m 0,2 m/s (0 Bft) SO22.5 125 0,00 min 0 lux 5,8 C 7,5 C
16.10.2005 03:35 7,6 C 6,8 C 89 % 1028 hPa 0,0 l/m 0,0 m/s (0 Bft) SO 130 0,00 min 0 lux 5,9 C 7,6 C
16.10.2005 03:40 7,5 C 6,8 C 89 % 1028 hPa 0,0 l/m 1,1 m/s (0 Bft) O-SO22.5 105 0,00 min 0 lux 5,8 C 7,5 C
16.10.2005 03:45 7,9 C 6,8 C 90 % 1028 hPa 0,0 l/m 1,4 m/s (1 Bft) O45 90 0,00 min 0 lux 6,4 C 7,9 C
16.10.2005 03:50 8,0 C 6,8 C 89 % 1028 hPa 0,0 l/m 3,1 m/s (1 Bft) O-SO22.5 105 0,00 min 0 lux 6,3 C 4,6 C
16.10.2005 03:55 7,6 C 6,8 C 88 % 1028 hPa 0,0 l/m 1,0 m/s (0 Bft) O-SO22.5 115 0,00 min 0 lux 5,7 C 7,6 C
16.10.2005 04:00 7,5 C 6,8 C 88 % 1028 hPa 0,0 l/m 1,4 m/s (1 Bft) O-SO45 115 0,00 min 0 lux 5,6 C 7,5 C
16.10.2005 04:05 7,0 C 6,7 C 88 % 1028 hPa 0,0 l/m 0,0 m/s (0 Bft) O-NO22.5 75 0,00 min 0 lux 5,2 C 7,0 C
16.10.2005 04:10 7,2 C 6,6 C 88 % 1028 hPa 0,0 l/m 0,1 m/s (0 Bft) O-NO22.5 65 0,00 min 0 lux 5,3 C 7,2 C
16.10.2005 04:15 6,6 C 6,5 C 89 % 1028 hPa 0,0 l/m 0,0 m/s (0 Bft) O22.5 85 0,00 min 0 lux 4,9 C 6,6 C
16.10.2005 04:20 6,5 C 6,5 C 89 % 1028 hPa 0,0 l/m 0,0 m/s (0 Bft) O 85 0,00 min 0 lux 4,8 C 6,5 C
16.10.2005 04:25 6,4 C 6,4 C 89 % 1028 hPa 0,0 l/m 0,0 m/s (0 Bft) O 85 0,00 min 0 lux 4,7 C 6,4 C
16.10.2005 04:30 6,3 C 6,3 C 89 % 1028 hPa 0,0 l/m 0,0 m/s (0 Bft) O 85 0,00 min 0 lux 4,6 C 6,3 C
16.10.2005 04:35 6,2 C 6,3 C 90 % 1028 hPa 0,0 l/m 0,0 m/s (0 Bft) O 90 0,00 min 0 lux 4,7 C 6,2 C
16.10.2005 04:40 6,1 C 6,2 C 90 % 1028 hPa 0,0 l/m 0,0 m/s (0 Bft) O 90 0,00 min 0 lux 4,6 C 6,1 C
16.10.2005 04:45 6,2 C 6,2 C 90 % 1028 hPa 0,0 l/m 0,0 m/s (0 Bft) O 90 0,00 min 0 lux 4,7 C 6,2 C
16.10.2005 04:50 6,1 C 6,2 C 91 % 1028 hPa 0,0 l/m 0,0 m/s (0 Bft) O 85 0,00 min 0 lux 4,7 C 6,1 C
16.10.2005 04:55 6,0 C 6,1 C 91 % 1028 hPa 0,0 l/m 0,0 m/s (0 Bft) O 85 0,00 min 0 lux 4,6 C 6,0 C
16.10.2005 05:00 6,6 C 6,1 C 92 % 1028 hPa 0,0 l/m 0,0 m/s (0 Bft) O 85 0,00 min 0 lux 5,4 C 6,6 C
16.10.2005 05:05 6,2 C 6,0 C 92 % 1027 hPa 0,0 l/m 0,1 m/s (0 Bft) O-NO 70 0,00 min 0 lux 5,0 C 6,2 C
16.10.2005 05:10 6,2 C 5,9 C 92 % 1027 hPa 0,0 l/m 0,0 m/s (0 Bft) O-NO 70 0,00 min 0 lux 5,0 C 6,2 C
16.10.2005 05:15 5,9 C 5,8 C 93 % 1028 hPa 0,0 l/m 0,0 m/s (0 Bft) O 90 0,00 min 0 lux 4,9 C 5,9 C
16.10.2005 05:20 5,9 C 5,8 C 93 % 1028 hPa 0,0 l/m 0,0 m/s (0 Bft) O 90 0,00 min 0 lux 4,9 C 5,9 C
16.10.2005 05:25 5,8 C 5,7 C 93 % 1028 hPa 0,0 l/m 0,0 m/s (0 Bft) O 90 0,00 min 0 lux 4,8 C 5,8 C
16.10.2005 05:30 5,9 C 5,6 C 93 % 1028 hPa 0,0 l/m 0,0 m/s (0 Bft) O 90 0,00 min 0 lux 4,9 C 5,9 C
16.10.2005 05:35 5,8 C 5,6 C 94 % 1027 hPa 0,0 l/m 0,0 m/s (0 Bft) O-NO 75 0,00 min 0 lux 4,9 C 5,8 C
16.10.2005 05:40 5,5 C 5,5 C 94 % 1027 hPa 0,0 l/m 0,0 m/s (0 Bft) O-NO 75 0,00 min 0 lux 4,6 C 5,5 C
16.10.2005 05:45 5,6 C 5,5 C 94 % 1027 hPa 0,0 l/m 0,0 m/s (0 Bft) O-NO 75 0,00 min 0 lux 4,7 C 5,6 C
16.10.2005 05:50 5,4 C 5,5 C 94 % 1027 hPa 0,0 l/m 0,0 m/s (0 Bft) O-NO 75 0,00 min 0 lux 4,5 C 5,4 C
16.10.2005 05:55 5,3 C 5,4 C 94 % 1027 hPa 0,0 l/m 0,0 m/s (0 Bft) O 95 0,00 min 0 lux 4,4 C 5,3 C
16.10.2005 06:00 5,3 C 5,4 C 94 % 1027 hPa 0,0 l/m 0,0 m/s (0 Bft) O 95 0,00 min 0 lux 4,4 C 5,3 C
16.10.2005 06:05 5,1 C 5,4 C 94 % 1027 hPa 0,0 l/m 0,0 m/s (0 Bft) O 95 0,00 min 0 lux 4,2 C 5,1 C
16.10.2005 06:10 5,4 C 5,3 C 94 % 1027 hPa 0,0 l/m 0,0 m/s (0 Bft) O-SO22.5 110 0,00 min 0 lux 4,5 C 5,4 C
16.10.2005 06:15 5,2 C 5,3 C 94 % 1027 hPa 0,0 l/m 0,0 m/s (0 Bft) O-SO 115 0,00 min 0 lux 4,3 C 5,2 C
16.10.2005 06:20 5,3 C 5,3 C 94 % 1027 hPa 0,0 l/m 0,0 m/s (0 Bft) O-NO22.5 70 0,00 min 0 lux 4,4 C 5,3 C
16.10.2005 06:25 5,5 C 5,3 C 94 % 1027 hPa 0,0 l/m 0,3 m/s (0 Bft) O22.5 90 0,00 min 0 lux 4,6 C 5,5 C
16.10.2005 06:30 5,3 C 5,2 C 94 % 1027 hPa 0,0 l/m 0,0 m/s (0 Bft) O 90 0,00 min 0 lux 4,4 C 5,3 C
16.10.2005 06:35 5,2 C 5,2 C 94 % 1027 hPa 0,0 l/m 0,1 m/s (0 Bft) O 90 0,00 min 0 lux 4,3 C 5,2 C
16.10.2005 06:40 5,4 C 5,1 C 95 % 1027 hPa 0,0 l/m 0,1 m/s (0 Bft) O22.5 80 0,00 min 0 lux 4,7 C 5,4 C
16.10.2005 06:45 5,4 C 5,1 C 95 % 1027 hPa 0,0 l/m 0,0 m/s (0 Bft) O 90 0,00 min 0 lux 4,7 C 5,4 C
16.10.2005 06:50 5,6 C 5,1 C 95 % 1027 hPa 0,0 l/m 0,0 m/s (0 Bft) O 90 0,00 min 0 lux 4,9 C 5,6 C
16.10.2005 06:55 5,3 C 5,0 C 95 % 1027 hPa 0,0 l/m 0,0 m/s (0 Bft) O-SO 105 0,00 min 0 lux 4,6 C 5,3 C
16.10.2005 07:00 5,0 C 5,0 C 95 % 1027 hPa 0,0 l/m 0,0 m/s (0 Bft) O-SO 105 0,00 min 0 lux 4,3 C 5,0 C
16.10.2005 07:05 5,0 C 5,0 C 95 % 1027 hPa 0,0 l/m 0,0 m/s (0 Bft) O-SO 105 0,00 min 0 lux 4,3 C 5,0 C
16.10.2005 07:10 4,9 C 5,0 C 95 % 1027 hPa 0,0 l/m 0,0 m/s (0 Bft) O 95 0,00 min 0 lux 4,2 C 4,9 C
16.10.2005 07:15 5,0 C 4,9 C 95 % 1027 hPa 0,0 l/m 0,0 m/s (0 Bft) O 100 0,00 min 0 lux 4,3 C 5,0 C
16.10.2005 07:20 4,9 C 4,9 C 95 % 1027 hPa 0,0 l/m 0,0 m/s (0 Bft) O-SO 110 0,00 min 0 lux 4,2 C 4,9 C
16.10.2005 07:25 4,7 C 4,9 C 95 % 1027 hPa 0,0 l/m 0,0 m/s (0 Bft) O-SO 110 0,00 min 0 lux 4,0 C 4,7 C
16.10.2005 07:30 4,5 C 4,8 C 95 % 1027 hPa 0,0 l/m 0,0 m/s (0 Bft) O-SO 110 0,00 min 0 lux 3,8 C 4,5 C
16.10.2005 07:35 4,3 C 4,8 C 95 % 1027 hPa 0,0 l/m 0,0 m/s (0 Bft) O-SO 110 0,00 min 72 lux 3,6 C 4,3 C
16.10.2005 07:40 4,3 C 4,6 C 95 % 1027 hPa 0,0 l/m 0,0 m/s (0 Bft) O-SO 105 0,00 min 137 lux 3,6 C 4,3 C
16.10.2005 07:45 4,3 C 4,6 C 95 % 1027 hPa 0,0 l/m 0,0 m/s (0 Bft) O-SO 105 0,00 min 240 lux 3,6 C 4,3 C
16.10.2005 07:50 4,3 C 4,6 C 95 % 1027 hPa 0,0 l/m 0,0 m/s (0 Bft) O-SO 105 0,00 min 389 lux 3,6 C 4,3 C
16.10.2005 07:55 4,4 C 4,5 C 95 % 1027 hPa 0,0 l/m 0,0 m/s (0 Bft) O-SO 105 0,00 min 591 lux 3,7 C 4,4 C
16.10.2005 08:00 4,5 C 4,5 C 95 % 1027 hPa 0,0 l/m 0,0 m/s (0 Bft) O-SO 105 0,00 min 875 lux 3,8 C 4,5 C
16.10.2005 08:05 4,5 C 4,5 C 95 % 1027 hPa 0,0 l/m 0,0 m/s (0 Bft) O-SO 105 0,00 min 1,28 klux 3,8 C 4,5 C
16.10.2005 08:10 4,5 C 4,5 C 95 % 1027 hPa 0,0 l/m 0,0 m/s (0 Bft) O 80 0,00 min 1,54 klux 3,8 C 4,5 C
16.10.2005 08:15 4,5 C 4,5 C 95 % 1027 hPa 0,0 l/m 0,0 m/s (0 Bft) O 85 0,00 min 2,18 klux 3,8 C 4,5 C
16.10.2005 08:20 4,8 C 4,5 C 95 % 1027 hPa 0,0 l/m 0,0 m/s (0 Bft) O 85 0,00 min 3,34 klux 4,1 C 4,8 C
16.10.2005 08:25 4,8 C 4,6 C 95 % 1027 hPa 0,0 l/m 0,0 m/s (0 Bft) O-SO 115 0,00 min 4,26 klux 4,1 C 4,8 C
16.10.2005 08:30 4,8 C 4,6 C 95 % 1027 hPa 0,0 l/m 0,0 m/s (0 Bft) O-SO 115 0,00 min 4,82 klux 4,1 C 4,8 C
16.10.2005 08:35 5,3 C 4,6 C 95 % 1028 hPa 0,0 l/m 0,0 m/s (0 Bft) O-SO22.5 105 0,00 min 6,57 klux 4,6 C 5,3 C
16.10.2005 08:40 5,6 C 4,7 C 95 % 1028 hPa 0,0 l/m 0,8 m/s (0 Bft) O22.5 90 0,00 min 8,15 klux 4,9 C 5,6 C
16.10.2005 08:45 6,0 C 4,8 C 95 % 1028 hPa 0,0 l/m 0,9 m/s (0 Bft) O22.5 90 0,00 min 8,88 klux 5,3 C 6,0 C
16.10.2005 08:50 6,3 C 4,9 C 95 % 1028 hPa 0,0 l/m 1,6 m/s (1 Bft) O-SO22.5 115 0,00 min 10,8 klux 5,6 C 6,3 C
16.10.2005 08:55 6,7 C 5,1 C 95 % 1028 hPa 0,0 l/m 1,7 m/s (1 Bft) O-SO 115 5,00 min 12,0 klux 6,0 C 6,7 C
16.10.2005 09:00 7,0 C 5,2 C 95 % 1028 hPa 0,0 l/m 1,8 m/s (1 Bft) O22.5 100 0,00 min 12,5 klux 6,3 C 7,0 C
16.10.2005 09:05 7,2 C 5,4 C 95 % 1028 hPa 0,0 l/m 1,6 m/s (1 Bft) O-SO22.5 110 5,00 min 14,1 klux 6,5 C 7,2 C
16.10.2005 09:10 7,3 C 5,7 C 94 % 1028 hPa 0,0 l/m 1,9 m/s (1 Bft) O-SO22.5 120 5,00 min 15,4 klux 6,4 C 6,8 C
16.10.2005 09:15 7,3 C 5,8 C 93 % 1028 hPa 0,0 l/m 2,5 m/s (1 Bft) O-SO22.5 115 5,00 min 17,2 klux 6,2 C 5,2 C
16.10.2005 09:20 7,4 C 5,9 C 92 % 1028 hPa 0,0 l/m 2,2 m/s (1 Bft) O-SO22.5 120 5,00 min 17,8 klux 6,2 C 6,2 C
16.10.2005 09:25 7,5 C 6,1 C 92 % 1028 hPa 0,0 l/m 2,1 m/s (1 Bft) SO22.5 135 5,00 min 20,5 klux 6,3 C 6,6 C
16.10.2005 09:30 7,8 C 6,3 C 91 % 1028 hPa 0,0 l/m 1,7 m/s (1 Bft) O-SO22.5 120 5,00 min 21,5 klux 6,4 C 7,8 C
16.10.2005 09:35 8,0 C 6,4 C 89 % 1028 hPa 0,0 l/m 1,4 m/s (1 Bft) O-SO22.5 110 5,00 min 22,7 klux 6,3 C 8,0 C
16.10.2005 09:40 8,3 C 6,6 C 88 % 1028 hPa 0,0 l/m 3,8 m/s (1 Bft) O-SO22.5 110 5,00 min 23,5 klux 6,4 C 3,6 C
16.10.2005 09:45 8,3 C 6,8 C 86 % 1028 hPa 0,0 l/m 2,7 m/s (1 Bft) SO22.5 140 5,00 min 25,6 klux 6,1 C 5,9 C
16.10.2005 09:50 8,5 C 7,0 C 86 % 1028 hPa 0,0 l/m 1,3 m/s (1 Bft) SO45 125 5,00 min 27,3 klux 6,3 C 8,5 C
16.10.2005 09:55 8,9 C 7,3 C 85 % 1028 hPa 0,0 l/m 2,9 m/s (1 Bft) O-SO67.5 115 5,00 min 28,0 klux 6,5 C 6,1 C
16.10.2005 10:00 9,1 C 8,2 C 81 % 1028 hPa 0,0 l/m 3,5 m/s (1 Bft) O-SO22.5 115 5,00 min 29,7 klux 6,0 C 5,2 C
16.10.2005 10:05 9,3 C 8,8 C 80 % 1028 hPa 0,0 l/m 1,9 m/s (1 Bft) SO45 140 5,00 min 31,1 klux 6,0 C 9,1 C
16.10.2005 10:10 9,5 C 10,1 C 80 % 1028 hPa 0,0 l/m 1,3 m/s (1 Bft) O-SO22.5 115 5,00 min 32,1 klux 6,2 C 9,5 C
16.10.2005 10:15 9,9 C 11,2 C 75 % 1028 hPa 0,0 l/m 4,6 m/s (1 Bft) O-SO45 105 5,00 min 33,3 klux 5,7 C 4,4 C
16.10.2005 10:20 10,1 C 12,2 C 72 % 1028 hPa 0,0 l/m 3,1 m/s (1 Bft) O-SO45 105 5,00 min 34,1 klux 5,3 C 7,0 C
16.10.2005 10:25 10,1 C 12,7 C 71 % 1028 hPa 0,0 l/m 3,3 m/s (1 Bft) O-SO22.5 105 5,00 min 34,6 klux 5,1 C 6,6 C
16.10.2005 10:30 10,3 C 13,5 C 69 % 1028 hPa 0,0 l/m 3,9 m/s (1 Bft) O22.5 80 5,00 min 36,1 klux 4,9 C 5,9 C
16.10.2005 10:35 10,5 C 14,2 C 68 % 1028 hPa 0,0 l/m 4,3 m/s (1 Bft) O45 100 5,00 min 37,3 klux 4,8 C 5,5 C
16.10.2005 10:40 10,5 C 14,5 C 68 % 1028 hPa 0,0 l/m 3,6 m/s (1 Bft) O67.5 90 5,00 min 38,1 klux 4,8 C 6,6 C
16.10.2005 10:45 10,7 C 15,2 C 66 % 1027 hPa 0,0 l/m 4,5 m/s (1 Bft) O45 95 5,00 min 38,5 klux 4,6 C 5,5 C
16.10.2005 10:50 11,0 C 15,6 C 65 % 1027 hPa 0,0 l/m 5,0 m/s (1 Bft) O22.5 95 5,00 min 39,5 klux 4,7 C 5,3 C
16.10.2005 10:55 11,1 C 16,3 C 66 % 1027 hPa 0,0 l/m 3,3 m/s (1 Bft) O45 90 5,00 min 40,5 klux 5,0 C 7,9 C
16.10.2005 11:00 11,2 C 16,4 C 63 % 1027 hPa 0,0 l/m 5,0 m/s (1 Bft) O45 95 5,00 min 41,0 klux 4,4 C 5,5 C
16.10.2005 11:05 11,3 C 16,9 C 63 % 1027 hPa 0,0 l/m 3,8 m/s (1 Bft) O45 90 5,00 min 41,7 klux 4,5 C 7,3 C
16.10.2005 11:10 11,3 C 17,1 C 62 % 1027 hPa 0,0 l/m 5,0 m/s (1 Bft) O45 95 5,00 min 42,7 klux 4,3 C 5,6 C
16.10.2005 11:15 11,2 C 17,4 C 62 % 1027 hPa 0,0 l/m 5,3 m/s (1 Bft) O45 95 5,00 min 43,2 klux 4,2 C 5,1 C
16.10.2005 11:20 11,6 C 17,4 C 62 % 1027 hPa 0,0 l/m 5,8 m/s (2 Bft) O45 90 5,00 min 45,3 klux 4,6 C 5,1 C
16.10.2005 11:25 11,8 C 18,0 C 61 % 1027 hPa 0,0 l/m 5,5 m/s (1 Bft) O45 90 5,00 min 45,6 klux 4,5 C 5,7 C
16.10.2005 11:30 11,7 C 18,2 C 61 % 1027 hPa 0,0 l/m 4,8 m/s (1 Bft) O45 100 5,00 min 45,4 klux 4,4 C 6,4 C
16.10.2005 11:35 11,9 C 18,7 C 60 % 1027 hPa 0,0 l/m 4,4 m/s (1 Bft) O-NO45 75 5,00 min 46,2 klux 4,4 C 7,1 C
16.10.2005 11:40 12,1 C 19,0 C 60 % 1027 hPa 0,0 l/m 6,4 m/s (2 Bft) O45 80 5,00 min 46,5 klux 4,6 C 5,2 C
16.10.2005 11:45 12,2 C 19,5 C 58 % 1027 hPa 0,0 l/m 4,9 m/s (1 Bft) O45 100 5,00 min 46,9 klux 4,2 C 6,8 C
16.10.2005 11:50 12,1 C 19,6 C 58 % 1027 hPa 0,0 l/m 4,7 m/s (1 Bft) O-SO22.5 105 5,00 min 47,2 klux 4,1 C 7,0 C
16.10.2005 11:55 12,2 C 20,0 C 58 % 1027 hPa 0,0 l/m 5,1 m/s (1 Bft) O-SO45 115 5,00 min 48,2 klux 4,2 C 6,7 C
16.10.2005 12:00 12,2 C 20,2 C 59 % 1027 hPa 0,0 l/m 4,9 m/s (1 Bft) O-SO45 105 5,00 min 48,5 klux 4,4 C 6,8 C
16.10.2005 12:05 12,1 C 20,5 C 58 % 1027 hPa 0,0 l/m 4,1 m/s (1 Bft) O45 100 5,00 min 49,1 klux 4,1 C 7,8 C
16.10.2005 12:10 12,3 C 20,9 C 58 % 1027 hPa 0,0 l/m 5,2 m/s (1 Bft) O-SO45 110 5,00 min 49,5 klux 4,3 C 6,6 C
16.10.2005 12:15 12,8 C 21,2 C 58 % 1027 hPa 0,0 l/m 3,9 m/s (1 Bft) O-SO45 105 5,00 min 50,6 klux 4,7 C 8,8 C
16.10.2005 12:20 12,7 C 21,3 C 58 % 1027 hPa 0,0 l/m 4,5 m/s (1 Bft) O-SO45 105 5,00 min 50,6 klux 4,7 C 8,0 C
16.10.2005 12:25 12,6 C 21,9 C 57 % 1027 hPa 0,0 l/m 4,9 m/s (1 Bft) O45 100 5,00 min 50,8 klux 4,3 C 7,4 C
16.10.2005 12:30 13,0 C 21,8 C 56 % 1027 hPa 0,0 l/m 4,3 m/s (1 Bft) O-SO22.5 105 5,00 min 51,2 klux 4,4 C 8,7 C
16.10.2005 12:35 12,9 C 22,2 C 57 % 1027 hPa 0,0 l/m 4,5 m/s (1 Bft) O45 90 5,00 min 51,4 klux 4,6 C 8,3 C
16.10.2005 12:40 13,0 C 22,3 C 55 % 1027 hPa 0,0 l/m 4,8 m/s (1 Bft) O45 90 5,00 min 51,7 klux 4,2 C 8,0 C
16.10.2005 12:45 13,4 C 22,6 C 55 % 1027 hPa 0,0 l/m 5,8 m/s (2 Bft) O67.5 80 5,00 min 52,7 klux 4,5 C 7,5 C
16.10.2005 12:50 13,0 C 22,8 C 53 % 1027 hPa 0,0 l/m 4,9 m/s (1 Bft) O67.5 100 5,00 min 52,1 klux 3,6 C 7,9 C
16.10.2005 12:55 13,5 C 22,9 C 55 % 1027 hPa 0,0 l/m 4,3 m/s (1 Bft) O-SO45 115 5,00 min 52,6 klux 4,6 C 9,3 C
16.10.2005 13:00 13,7 C 23,3 C 54 % 1027 hPa 0,0 l/m 3,3 m/s (1 Bft) O-SO67.5 115 5,00 min 52,7 klux 4,6 C 10,8 C
16.10.2005 13:05 13,7 C 23,4 C 53 % 1027 hPa 0,0 l/m 6,3 m/s (2 Bft) O-SO45 110 5,00 min 52,9 klux 4,3 C 7,4 C
16.10.2005 13:10 13,7 C 23,5 C 52 % 1027 hPa 0,0 l/m 5,4 m/s (1 Bft) O-NO45 75 5,00 min 52,9 klux 4,0 C 8,2 C
16.10.2005 13:15 13,6 C 23,3 C 51 % 1027 hPa 0,0 l/m 6,0 m/s (2 Bft) O-SO22.5 110 5,00 min 52,8 klux 3,7 C 7,5 C
16.10.2005 13:20 13,8 C 23,8 C 51 % 1027 hPa 0,0 l/m 4,4 m/s (1 Bft) O-SO45 120 5,00 min 52,8 klux 3,8 C 9,4 C
16.10.2005 13:25 13,9 C 23,9 C 51 % 1027 hPa 0,0 l/m 4,4 m/s (1 Bft) O-SO45 120 5,00 min 52,7 klux 3,9 C 9,6 C
16.10.2005 13:30 13,7 C 23,8 C 50 % 1026 hPa 0,0 l/m 4,9 m/s (1 Bft) O45 85 5,00 min 52,8 klux 3,5 C 8,7 C
16.10.2005 13:35 14,2 C 24,2 C 49 % 1026 hPa 0,0 l/m 4,8 m/s (1 Bft) O67.5 95 5,00 min 53,0 klux 3,6 C 9,4 C
16.10.2005 13:40 14,2 C 24,7 C 49 % 1026 hPa 0,0 l/m 4,3 m/s (1 Bft) O-SO22.5 115 5,00 min 53,2 klux 3,6 C 10,1 C
16.10.2005 13:45 13,9 C 24,6 C 48 % 1026 hPa 0,0 l/m 6,0 m/s (2 Bft) O-SO45 120 5,00 min 53,0 klux 3,1 C 7,9 C
16.10.2005 13:50 13,8 C 23,6 C 48 % 1026 hPa 0,0 l/m 5,5 m/s (1 Bft) SO67.5 125 5,00 min 52,6 klux 3,0 C 8,2 C
16.10.2005 13:55 14,0 C 22,7 C 47 % 1026 hPa 0,0 l/m 5,3 m/s (1 Bft) O-SO45 115 5,00 min 52,7 klux 2,9 C 8,7 C
16.10.2005 14:00 14,0 C 21,4 C 45 % 1026 hPa 0,0 l/m 5,7 m/s (1 Bft) O-SO45 115 5,00 min 52,6 klux 2,3 C 8,3 C
16.10.2005 14:05 14,1 C 20,9 C 46 % 1026 hPa 0,0 l/m 5,1 m/s (1 Bft) O-SO45 105 5,00 min 51,8 klux 2,7 C 9,0 C
16.10.2005 14:10 14,1 C 20,2 C 45 % 1026 hPa 0,0 l/m 5,7 m/s (1 Bft) O-SO45 115 5,00 min 51,3 klux 2,4 C 8,4 C
16.10.2005 14:15 14,4 C 21,3 C 45 % 1026 hPa 0,0 l/m 6,3 m/s (2 Bft) O-SO22.5 120 5,00 min 51,0 klux 2,6 C 8,4 C
16.10.2005 14:20 14,5 C 21,9 C 44 % 1026 hPa 0,0 l/m 5,3 m/s (1 Bft) O-SO22.5 115 5,00 min 50,6 klux 2,4 C 9,3 C
16.10.2005 14:25 14,5 C 22,7 C 45 % 1026 hPa 0,0 l/m 6,5 m/s (2 Bft) O-SO22.5 120 5,00 min 50,9 klux 2,7 C 8,3 C
16.10.2005 14:30 14,5 C 23,6 C 45 % 1026 hPa 0,0 l/m 5,4 m/s (1 Bft) SO22.5 125 5,00 min 50,1 klux 2,7 C 9,2 C
16.10.2005 14:35 14,5 C 24,2 C 43 % 1026 hPa 0,0 l/m 6,0 m/s (2 Bft) O-SO45 115 5,00 min 50,5 klux 2,1 C 8,7 C
16.10.2005 14:40 14,7 C 24,3 C 44 % 1026 hPa 0,0 l/m 6,6 m/s (2 Bft) O-SO45 105 5,00 min 49,7 klux 2,6 C 8,5 C
16.10.2005 14:45 14,5 C 24,5 C 42 % 1026 hPa 0,0 l/m 6,1 m/s (2 Bft) O-SO45 115 5,00 min 48,8 klux 1,7 C 8,6 C
16.10.2005 14:50 14,6 C 24,9 C 42 % 1026 hPa 0,0 l/m 5,2 m/s (1 Bft) O-SO45 115 5,00 min 48,2 klux 1,8 C 9,6 C
16.10.2005 14:55 14,8 C 25,3 C 41 % 1026 hPa 0,0 l/m 5,4 m/s (1 Bft) O-SO45 115 5,00 min 47,8 klux 1,7 C 9,6 C
16.10.2005 15:00 14,8 C 25,8 C 41 % 1026 hPa 0,0 l/m 5,1 m/s (1 Bft) O-SO22.5 120 5,00 min 47,3 klux 1,7 C 9,9 C
16.10.2005 15:05 15,2 C 25,9 C 41 % 1026 hPa 0,0 l/m 6,1 m/s (2 Bft) O-SO45 110 5,00 min 46,8 klux 2,0 C 9,5 C
16.10.2005 15:10 15,2 C 25,8 C 40 % 1026 hPa 0,0 l/m 4,9 m/s (1 Bft) O45 100 5,00 min 46,2 klux 1,7 C 10,6 C
16.10.2005 15:15 15,3 C 26,2 C 41 % 1025 hPa 0,0 l/m 6,7 m/s (2 Bft) O-SO45 120 5,00 min 46,0 klux 2,1 C 9,2 C
16.10.2005 15:20 15,2 C 26,3 C 39 % 1025 hPa 0,0 l/m 4,1 m/s (1 Bft) O67.5 80 5,00 min 44,9 klux 1,3 C 11,5 C
16.10.2005 15:25 15,1 C 26,4 C 37 % 1025 hPa 0,0 l/m 6,3 m/s (2 Bft) O-SO45 115 5,00 min 44,7 klux 0,5 C 9,3 C
16.10.2005 15:30 15,2 C 26,8 C 37 % 1025 hPa 0,0 l/m 5,9 m/s (2 Bft) O-SO22.5 115 5,00 min 44,1 klux 0,6 C 9,7 C
16.10.2005 15:35 15,2 C 26,1 C 35 % 1025 hPa 0,0 l/m 6,1 m/s (2 Bft) O45 95 5,00 min 43,3 klux -0,2 C 9,5 C
16.10.2005 15:40 15,3 C 26,4 C 36 % 1025 hPa 0,0 l/m 4,6 m/s (1 Bft) O-SO45 115 5,00 min 42,5 klux 0,3 C 11,0 C
16.10.2005 15:45 15,1 C 26,5 C 35 % 1025 hPa 0,0 l/m 4,5 m/s (1 Bft) SO45 125 5,00 min 41,7 klux -0,2 C 10,9 C
16.10.2005 15:50 15,4 C 26,5 C 36 % 1025 hPa 0,0 l/m 4,2 m/s (1 Bft) O-SO22.5 120 5,00 min 41,3 klux 0,4 C 11,7 C
16.10.2005 15:55 15,4 C 26,4 C 35 % 1025 hPa 0,0 l/m 6,6 m/s (2 Bft) O-SO45 105 5,00 min 40,3 klux 0,0 C 9,4 C
16.10.2005 16:00 15,4 C 26,0 C 34 % 1025 hPa 0,0 l/m 6,3 m/s (2 Bft) O45 100 5,00 min 39,6 klux -0,4 C 9,7 C
16.10.2005 16:05 15,4 C 26,0 C 33 % 1025 hPa 0,0 l/m 4,9 m/s (1 Bft) O-SO45 105 5,00 min 39,1 klux -0,8 C 10,8 C
16.10.2005 16:10 15,4 C 25,7 C 34 % 1025 hPa 0,0 l/m 4,1 m/s (1 Bft) O45 95 5,00 min 38,3 klux -0,4 C 11,7 C
16.10.2005 16:15 15,4 C 25,6 C 34 % 1025 hPa 0,0 l/m 5,8 m/s (2 Bft) O-SO45 115 5,00 min 37,3 klux -0,4 C 10,0 C
16.10.2005 16:20 15,4 C 25,6 C 33 % 1025 hPa 0,0 l/m 4,7 m/s (1 Bft) O45 90 5,00 min 36,6 klux -0,8 C 11,1 C
16.10.2005 16:25 15,3 C 25,8 C 32 % 1025 hPa 0,0 l/m 5,0 m/s (1 Bft) O-SO45 105 5,00 min 35,6 klux -1,3 C 10,6 C
16.10.2005 16:30 15,3 C 26,1 C 33 % 1025 hPa 0,0 l/m 2,9 m/s (1 Bft) O45 90 5,00 min 34,8 klux -0,9 C 13,2 C
16.10.2005 16:35 15,2 C 25,9 C 33 % 1025 hPa 0,0 l/m 4,9 m/s (1 Bft) O-SO45 110 5,00 min 33,9 klux -1,0 C 10,6 C
16.10.2005 16:40 15,2 C 25,5 C 32 % 1025 hPa 0,0 l/m 6,5 m/s (2 Bft) O-NO45 70 5,00 min 32,8 klux -1,4 C 9,2 C
16.10.2005 16:45 15,1 C 24,7 C 31 % 1025 hPa 0,0 l/m 6,9 m/s (2 Bft) O22.5 85 5,00 min 31,5 klux -1,9 C 8,8 C
16.10.2005 16:50 14,9 C 23,9 C 32 % 1025 hPa 0,0 l/m 6,9 m/s (2 Bft) O-SO45 105 5,00 min 30,4 klux -1,6 C 8,5 C
16.10.2005 16:55 14,8 C 23,4 C 32 % 1025 hPa 0,0 l/m 8,4 m/s (2 Bft) O45 95 5,00 min 29,3 klux -1,7 C 7,4 C
16.10.2005 17:00 14,8 C 22,6 C 32 % 1025 hPa 0,0 l/m 6,0 m/s (2 Bft) O45 85 5,00 min 28,6 klux -1,7 C 9,1 C
16.10.2005 17:05 14,8 C 22,2 C 32 % 1025 hPa 0,0 l/m 7,8 m/s (2 Bft) O45 80 5,00 min 27,2 klux -1,7 C 7,8 C
16.10.2005 17:10 14,7 C 21,7 C 33 % 1025 hPa 0,0 l/m 5,6 m/s (1 Bft) O-SO67.5 110 5,00 min 26,1 klux -1,4 C 9,3 C
16.10.2005 17:15 14,6 C 20,4 C 34 % 1025 hPa 0,0 l/m 5,8 m/s (2 Bft) O45 95 5,00 min 24,8 klux -1,1 C 9,0 C
16.10.2005 17:20 14,5 C 19,0 C 32 % 1025 hPa 0,0 l/m 6,1 m/s (2 Bft) O-NO67.5 75 5,00 min 23,3 klux -2,0 C 8,6 C
16.10.2005 17:25 14,4 C 18,5 C 32 % 1025 hPa 0,0 l/m 7,4 m/s (2 Bft) O45 85 5,00 min 21,8 klux -2,1 C 7,4 C
16.10.2005 17:30 14,3 C 17,6 C 33 % 1025 hPa 0,0 l/m 5,3 m/s (1 Bft) O-NO45 70 5,00 min 20,5 klux -1,7 C 9,1 C
16.10.2005 17:35 14,2 C 16,8 C 32 % 1025 hPa 0,0 l/m 6,4 m/s (2 Bft) O45 90 5,00 min 19,1 klux -2,2 C 8,0 C
16.10.2005 17:40 14,0 C 16,3 C 33 % 1025 hPa 0,0 l/m 7,4 m/s (2 Bft) O22.5 85 5,00 min 17,7 klux -2,0 C 6,9 C
16.10.2005 17:45 14,0 C 15,9 C 33 % 1025 hPa 0,0 l/m 7,9 m/s (2 Bft) O22.5 95 5,00 min 16,1 klux -2,0 C 6,6 C
16.10.2005 17:50 13,7 C 15,5 C 35 % 1025 hPa 0,0 l/m 3,9 m/s (1 Bft) O22.5 85 5,00 min 15,1 klux -1,5 C 10,0 C
16.10.2005 17:55 13,5 C 15,0 C 35 % 1025 hPa 0,0 l/m 5,3 m/s (1 Bft) O45 95 5,00 min 13,3 klux -1,6 C 8,1 C
16.10.2005 18:00 13,3 C 14,8 C 36 % 1025 hPa 0,0 l/m 4,0 m/s (1 Bft) O22.5 95 5,00 min 11,6 klux -1,4 C 9,4 C
16.10.2005 18:05 13,2 C 14,4 C 35 % 1025 hPa 0,0 l/m 4,8 m/s (1 Bft) O45 90 5,00 min 9,6 klux -1,9 C 8,3 C
16.10.2005 18:10 12,9 C 14,1 C 37 % 1025 hPa 0,0 l/m 5,6 m/s (1 Bft) O45 90 5,00 min 7,72 klux -1,4 C 7,0 C
16.10.2005 18:15 12,6 C 14,0 C 37 % 1025 hPa 0,0 l/m 2,9 m/s (1 Bft) O-NO22.5 70 5,00 min 5,89 klux -1,7 C 10,2 C
16.10.2005 18:20 12,5 C 14,0 C 38 % 1025 hPa 0,0 l/m 2,8 m/s (1 Bft) O-NO45 70 5,00 min 4,42 klux -1,4 C 10,3 C
16.10.2005 18:25 12,5 C 13,4 C 37 % 1025 hPa 0,0 l/m 4,2 m/s (1 Bft) O-NO67.5 70 0,00 min 1,32 klux -1,8 C 8,1 C
16.10.2005 18:30 12,1 C 13,0 C 36 % 1025 hPa 0,0 l/m 4,3 m/s (1 Bft) O22.5 85 0,00 min 829 lux -2,5 C 7,5 C
16.10.2005 18:35 12,1 C 12,7 C 36 % 1025 hPa 0,0 l/m 4,2 m/s (1 Bft) O45 85 0,00 min 488 lux -2,5 C 7,7 C
16.10.2005 18:40 11,6 C 12,5 C 38 % 1025 hPa 0,0 l/m 3,6 m/s (1 Bft) O-NO45 70 0,00 min 273 lux -2,2 C 7,9 C
16.10.2005 18:45 11,4 C 12,1 C 39 % 1025 hPa 0,0 l/m 3,8 m/s (1 Bft) O-NO22.5 75 0,00 min 207 lux -2,0 C 7,4 C
16.10.2005 18:50 11,3 C 12,0 C 39 % 1025 hPa 0,0 l/m 4,5 m/s (1 Bft) O22.5 85 0,00 min 116 lux -2,1 C 6,3 C
16.10.2005 18:55 11,3 C 11,9 C 38 % 1025 hPa 0,0 l/m 5,8 m/s (2 Bft) O45 85 0,00 min 64 lux -2,5 C 4,7 C
16.10.2005 19:00 10,7 C 11,5 C 40 % 1025 hPa 0,0 l/m 2,8 m/s (1 Bft) O22.5 80 0,00 min 23 lux -2,3 C 8,3 C
16.10.2005 19:05 10,6 C 11,3 C 41 % 1025 hPa 0,0 l/m 3,6 m/s (1 Bft) O22.5 80 0,00 min 16 lux -2,1 C 6,8 C
16.10.2005 19:10 10,2 C 11,1 C 41 % 1026 hPa 0,0 l/m 3,4 m/s (1 Bft) O22.5 80 0,00 min 11 lux -2,5 C 6,5 C
16.10.2005 19:15 10,2 C 10,9 C 41 % 1026 hPa 0,0 l/m 3,9 m/s (1 Bft) O-NO45 75 0,00 min 5 lux -2,5 C 5,8 C
16.10.2005 19:20 10,3 C 10,9 C 41 % 1026 hPa 0,0 l/m 3,1 m/s (1 Bft) O45 90 0,00 min 2 lux -2,4 C 7,4 C
16.10.2005 19:25 10,2 C 10,6 C 42 % 1026 hPa 0,0 l/m 2,6 m/s (1 Bft) O-NO45 75 0,00 min 0 lux -2,1 C 8,2 C
16.10.2005 19:30 9,8 C 10,4 C 43 % 1026 hPa 0,0 l/m 3,1 m/s (1 Bft) O67.5 80 0,00 min 0 lux -2,2 C 6,7 C
16.10.2005 19:35 9,6 C 10,4 C 45 % 1026 hPa 0,0 l/m 4,5 m/s (1 Bft) O45 85 0,00 min 0 lux -1,7 C 4,1 C
16.10.2005 19:40 9,8 C 10,4 C 45 % 1026 hPa 0,0 l/m 3,7 m/s (1 Bft) O45 90 0,00 min 0 lux -1,6 C 5,6 C
16.10.2005 19:45 9,6 C 10,4 C 45 % 1026 hPa 0,0 l/m 2,5 m/s (1 Bft) O22.5 95 0,00 min 0 lux -1,7 C 7,8 C
16.10.2005 19:50 9,7 C 9,7 C 45 % 1026 hPa 0,0 l/m 3,7 m/s (1 Bft) O22.5 100 0,00 min 0 lux -1,6 C 5,5 C
16.10.2005 19:55 9,6 C 9,7 C 46 % 1026 hPa 0,0 l/m 3,7 m/s (1 Bft) O45 85 0,00 min 0 lux -1,4 C 5,4 C
16.10.2005 20:00 9,3 C 9,5 C 46 % 1026 hPa 0,0 l/m 2,8 m/s (1 Bft) O-NO45 75 0,00 min 0 lux -1,7 C 6,8 C
16.10.2005 20:05 9,0 C 9,3 C 47 % 1026 hPa 0,0 l/m 1,9 m/s (1 Bft) O22.5 80 0,00 min 0 lux -1,7 C 8,5 C
16.10.2005 20:10 8,6 C 9,2 C 49 % 1026 hPa 0,0 l/m 2,1 m/s (1 Bft) O-NO22.5 65 0,00 min 0 lux -1,5 C 7,7 C
16.10.2005 20:15 8,5 C 9,0 C 50 % 1026 hPa 0,0 l/m 2,7 m/s (1 Bft) O-NO45 75 0,00 min 0 lux -1,3 C 6,2 C
16.10.2005 20:20 8,5 C 8,9 C 50 % 1026 hPa 0,0 l/m 2,9 m/s (1 Bft) O-NO22.5 75 0,00 min 0 lux -1,3 C 5,6 C
16.10.2005 20:25 8,5 C 8,8 C 50 % 1026 hPa 0,0 l/m 3,7 m/s (1 Bft) O45 90 0,00 min 0 lux -1,3 C 4,1 C
16.10.2005 20:30 8,5 C 8,6 C 50 % 1026 hPa 0,0 l/m 3,4 m/s (1 Bft) O-NO45 75 0,00 min 0 lux -1,3 C 4,7 C
16.10.2005 20:35 8,1 C 8,6 C 50 % 1026 hPa 0,0 l/m 1,9 m/s (1 Bft) O22.5 80 0,00 min 0 lux -1,7 C 7,8 C
16.10.2005 20:40 7,9 C 8,4 C 53 % 1026 hPa 0,0 l/m 2,4 m/s (1 Bft) O-NO67.5 65 0,00 min 0 lux -1,1 C 6,1 C
16.10.2005 20:45 8,2 C 8,3 C 52 % 1026 hPa 0,0 l/m 5,6 m/s (1 Bft) O-NO22.5 75 0,00 min 0 lux -1,1 C 0,9 C
16.10.2005 20:50 8,3 C 8,3 C 50 % 1026 hPa 0,0 l/m 4,9 m/s (1 Bft) O-NO45 75 0,00 min 0 lux -1,5 C 2,0 C
16.10.2005 20:55 8,2 C 8,2 C 50 % 1026 hPa 0,0 l/m 3,5 m/s (1 Bft) O45 80 0,00 min 0 lux -1,6 C 4,2 C
16.10.2005 21:00 8,1 C 8,1 C 50 % 1026 hPa 0,0 l/m 4,4 m/s (1 Bft) O22.5 80 0,00 min 0 lux -1,7 C 2,5 C
16.10.2005 21:05 7,9 C 8,1 C 51 % 1026 hPa 0,0 l/m 3,8 m/s (1 Bft) O-NO45 75 0,00 min 0 lux -1,6 C 3,3 C
16.10.2005 21:10 7,9 C 8,0 C 52 % 1026 hPa 0,0 l/m 4,2 m/s (1 Bft) O-NO22.5 75 0,00 min 0 lux -1,3 C 2,5 C
16.10.2005 21:15 7,8 C 7,9 C 53 % 1026 hPa 0,0 l/m 4,7 m/s (1 Bft) O22.5 90 0,00 min 0 lux -1,2 C 1,6 C
16.10.2005 21:20 7,8 C 7,8 C 53 % 1026 hPa 0,0 l/m 3,7 m/s (1 Bft) O22.5 85 0,00 min 0 lux -1,2 C 3,3 C
16.10.2005 21:25 7,8 C 7,7 C 55 % 1026 hPa 0,0 l/m 4,9 m/s (1 Bft) O22.5 90 0,00 min 0 lux -0,7 C 1,3 C
16.10.2005 21:30 7,5 C 7,7 C 56 % 1026 hPa 0,0 l/m 4,5 m/s (1 Bft) O45 80 0,00 min 0 lux -0,7 C 1,6 C
16.10.2005 21:35 7,8 C 7,5 C 56 % 1026 hPa 0,0 l/m 5,3 m/s (1 Bft) O-NO22.5 70 0,00 min 0 lux -0,4 C 0,8 C
16.10.2005 21:40 7,8 C 7,6 C 57 % 1026 hPa 0,0 l/m 5,6 m/s (1 Bft) O22.5 80 0,00 min 0 lux -0,2 C 0,4 C
16.10.2005 21:45 7,8 C 7,5 C 57 % 1026 hPa 0,0 l/m 5,1 m/s (1 Bft) O45 85 0,00 min 0 lux -0,2 C 1,1 C
16.10.2005 21:50 7,5 C 7,4 C 58 % 1026 hPa 0,0 l/m 5,6 m/s (1 Bft) O45 85 0,00 min 0 lux -0,2 C 0,1 C
16.10.2005 21:55 7,4 C 7,4 C 58 % 1026 hPa 0,0 l/m 5,9 m/s (2 Bft) O-NO45 75 0,00 min 0 lux -0,3 C -0,6 C
16.10.2005 22:00 7,1 C 7,3 C 59 % 1026 hPa 0,0 l/m 5,1 m/s (1 Bft) O-NO45 75 0,00 min 0 lux -0,4 C 0,2 C
16.10.2005 22:05 7,3 C 7,2 C 59 % 1026 hPa 0,0 l/m 5,4 m/s (1 Bft) O45 80 0,00 min 0 lux -0,2 C 0,1 C
16.10.2005 22:10 7,1 C 7,2 C 59 % 1026 hPa 0,0 l/m 5,4 m/s (1 Bft) O-NO45 75 0,00 min 0 lux -0,4 C -0,3 C
16.10.2005 22:15 7,1 C 7,1 C 60 % 1026 hPa 0,0 l/m 4,3 m/s (1 Bft) O45 90 0,00 min 0 lux -0,1 C 1,4 C
16.10.2005 22:20 7,0 C 7,0 C 60 % 1027 hPa 0,0 l/m 3,9 m/s (1 Bft) O45 85 0,00 min 0 lux -0,2 C 2,0 C
16.10.2005 22:25 6,9 C 6,9 C 61 % 1027 hPa 0,0 l/m 3,8 m/s (1 Bft) O45 85 0,00 min 0 lux -0,1 C 2,1 C
16.10.2005 22:30 6,8 C 6,8 C 62 % 1026 hPa 0,0 l/m 4,2 m/s (1 Bft) O67.5 80 0,00 min 0 lux 0,0 C 1,3 C
16.10.2005 22:35 6,7 C 6,8 C 63 % 1027 hPa 0,0 l/m 4,9 m/s (1 Bft) O-NO22.5 75 0,00 min 0 lux 0,2 C -0,0 C
16.10.2005 22:40 6,5 C 6,7 C 63 % 1027 hPa 0,0 l/m 3,8 m/s (1 Bft) O-NO22.5 75 0,00 min 0 lux -0,0 C 1,6 C
16.10.2005 22:45 6,4 C 6,5 C 64 % 1027 hPa 0,0 l/m 2,5 m/s (1 Bft) O-NO22.5 70 0,00 min 0 lux 0,1 C 4,2 C
16.10.2005 22:50 6,1 C 6,5 C 65 % 1027 hPa 0,0 l/m 1,8 m/s (1 Bft) O45 80 0,00 min 0 lux 0,0 C 6,0 C
16.10.2005 22:55 5,9 C 6,3 C 67 % 1027 hPa 0,0 l/m 1,8 m/s (1 Bft) O-NO45 60 0,00 min 0 lux 0,3 C 5,9 C
16.10.2005 23:00 5,9 C 6,2 C 68 % 1027 hPa 0,0 l/m 2,2 m/s (1 Bft) O-NO22.5 75 0,00 min 0 lux 0,5 C 4,6 C
16.10.2005 23:05 6,0 C 6,2 C 67 % 1027 hPa 0,0 l/m 3,3 m/s (1 Bft) O67.5 80 0,00 min 0 lux 0,3 C 1,9 C
16.10.2005 23:10 5,9 C 6,1 C 69 % 1027 hPa 0,0 l/m 1,7 m/s (1 Bft) O-NO22.5 75 0,00 min 0 lux 0,7 C 5,9 C
16.10.2005 23:15 5,8 C 6,0 C 69 % 1027 hPa 0,0 l/m 1,9 m/s (1 Bft) O22.5 90 0,00 min 0 lux 0,6 C 5,3 C
16.10.2005 23:20 5,9 C 6,0 C 69 % 1027 hPa 0,0 l/m 2,6 m/s (1 Bft) O45 90 0,00 min 0 lux 0,7 C 3,4 C
16.10.2005 23:25 5,6 C 5,8 C 69 % 1027 hPa 0,0 l/m 2,2 m/s (1 Bft) O45 80 0,00 min 0 lux 0,4 C 4,4 C
16.10.2005 23:30 5,6 C 5,7 C 70 % 1027 hPa 0,0 l/m 1,9 m/s (1 Bft) O22.5 85 0,00 min 0 lux 0,6 C 5,3 C
16.10.2005 23:35 5,4 C 5,6 C 70 % 1027 hPa 0,0 l/m 2,1 m/s (1 Bft) O22.5 80 0,00 min 0 lux 0,4 C 4,5 C
16.10.2005 23:40 5,6 C 5,5 C 71 % 1027 hPa 0,0 l/m 1,4 m/s (1 Bft) O67.5 95 0,00 min 0 lux 0,8 C 5,6 C
16.10.2005 23:45 5,6 C 5,4 C 71 % 1027 hPa 0,0 l/m 2,0 m/s (1 Bft) O45 85 0,00 min 0 lux 0,8 C 5,0 C
16.10.2005 23:50 5,3 C 5,3 C 72 % 1027 hPa 0,0 l/m 3,3 m/s (1 Bft) O45 85 0,00 min 0 lux 0,7 C 1,1 C
16.10.2005 23:55 5,4 C 5,3 C 72 % 1027 hPa 0,0 l/m 2,2 m/s (1 Bft) O22.5 85 0,00 min 0 lux 0,8 C 4,0 C
_ Min-Zeit 07:35 07:55 16:45 15:15 - 00:40 - - - - 18:30 21:55
Minimum _ 4,3 C 4,5 C 31 % 1025 hPa - 0,0 m/s (0 Bft) - - - - -2,5 C -0,6 C
_ Max-Zeit 15:50 15:30 06:40 00:00 00:00 16:55 - - 08:55 13:40 09:55 16:30
Maximum _ 15,4 C 26,8 C 95 % 1028 hPa 0,0 l/m 8,4 m/s
O (5 Bft)
- - 5,00 min 53,2 klux 6,5 C 13,2 C
Durchschnitt _ 9,5 C 11,9 C 66 % 1027 hPa #0,0 l/m 2,9 m/s (2 Bft) O - #9:25 h 15,2 klux 2,7 C 6,7 C